Time,TemperatureF,DewpointF,PressureIn,WindDirection,WindDirectionDegrees,WindSpeedMPH,WindSpeedGustMPH,Humidity,HourlyPrecipIn,Conditions,Clouds,dailyrainin,SoftwareType,DateUTC
2013-02-12 00:00:00,61.3,56.1,30.24,SE,125,0.0,0.0,83,0.00,,---,0.00,VWS V14.01,2013-02-12 05:00:00,
2013-02-12 00:01:00,61.3,56.5,30.24,SE,125,0.0,0.0,84,0.00,,---,0.00,VWS V14.01,2013-02-12 05:01:00,
2013-02-12 00:02:00,61.3,56.5,30.24,SE,125,0.0,0.0,84,0.00,,---,0.00,VWS V14.01,2013-02-12 05:02:00,
2013-02-12 00:07:00,61.2,56.6,30.24,SE,124,0.0,0.0,85,0.00,,---,0.00,VWS V14.01,2013-02-12 05:07:00,
2013-02-12 00:12:00,61.0,56.1,30.24,SE,124,0.0,0.0,84,0.00,,---,0.00,VWS V14.01,2013-02-12 05:12:00,
2013-02-12 00:17:00,61.0,56.1,30.24,SE,125,0.0,0.0,84,0.00,,---,0.00,VWS V14.01,2013-02-12 05:17:00,
2013-02-12 00:22:00,61.0,56.1,30.24,SE,125,0.0,0.0,84,0.00,,---,0.00,VWS V14.01,2013-02-12 05:22:00,
2013-02-12 00:27:00,60.8,55.9,30.24,SE,124,0.0,0.0,84,0.00,,---,0.00,VWS V14.01,2013-02-12 05:27:00,
2013-02-12 00:33:00,60.8,55.9,30.24,SE,125,0.0,0.0,84,0.00,,---,0.00,VWS V14.01,2013-02-12 05:33:00,
2013-02-12 00:38:00,60.8,55.9,30.24,SE,124,0.0,0.0,84,0.00,,---,0.00,VWS V14.01,2013-02-12 05:38:00,
2013-02-12 00:43:00,60.4,55.9,30.24,SE,124,0.0,0.0,85,0.00,,---,0.00,VWS V14.01,2013-02-12 05:43:00,
2013-02-12 00:48:00,60.4,56.2,30.24,SE,124,0.0,0.0,86,0.00,,---,0.00,VWS V14.01,2013-02-12 05:48:00,
2013-02-12 00:53:00,60.4,56.6,30.24,SE,124,0.0,0.0,87,0.00,,---,0.00,VWS V14.01,2013-02-12 05:53:00,
2013-02-12 00:58:00,60.4,56.2,30.24,SE,124,0.0,0.0,86,0.00,,---,0.00,VWS V14.01,2013-02-12 05:58:00,
2013-02-12 01:03:00,60.4,56.2,30.24,SE,124,0.0,0.0,86,0.00,,---,0.00,VWS V14.01,2013-02-12 06:03:00,
2013-02-12 01:08:00,60.4,56.2,30.24,SE,125,0.0,0.0,86,0.00,,---,0.00,VWS V14.01,2013-02-12 06:08:00,
2013-02-12 01:13:00,60.3,56.4,30.24,SE,124,0.0,0.0,87,0.00,,---,0.00,VWS V14.01,2013-02-12 06:13:00,
2013-02-12 01:18:00,60.3,56.4,30.24,SE,124,0.0,0.0,87,0.00,,---,0.00,VWS V14.01,2013-02-12 06:18:00,
2013-02-12 01:23:00,60.1,56.5,30.24,SE,125,0.0,0.0,88,0.00,,---,0.00,VWS V14.01,2013-02-12 06:23:00,
2013-02-12 01:28:00,60.1,56.8,30.24,SE,125,0.0,0.0,89,0.00,,---,0.00,VWS V14.01,2013-02-12 06:28:00,
2013-02-12 01:33:00,60.1,56.8,30.24,SE,125,0.0,0.0,89,0.00,,---,0.00,VWS V14.01,2013-02-12 06:33:00,
2013-02-12 01:38:00,60.1,56.8,30.21,SE,125,0.0,0.0,89,0.00,,---,0.00,VWS V14.01,2013-02-12 06:38:00,
2013-02-12 01:43:00,59.9,56.7,30.21,SE,124,0.0,0.0,89,0.00,,---,0.00,VWS V14.01,2013-02-12 06:43:00,
2013-02-12 01:49:00,59.9,57.0,30.21,SE,124,0.0,0.0,90,0.00,,---,0.00,VWS V14.01,2013-02-12 06:49:00,
2013-02-12 01:54:00,60.1,56.8,30.21,SE,125,0.0,0.0,89,0.00,,---,0.00,VWS V14.01,2013-02-12 06:54:00,
2013-02-12 01:59:00,59.9,57.0,30.21,SE,124,0.0,0.0,90,0.00,,---,0.00,VWS V14.01,2013-02-12 06:59:00,
2013-02-12 02:04:00,59.9,56.7,30.21,SE,124,0.0,0.0,89,0.00,,---,0.00,VWS V14.01,2013-02-12 07:04:00,
2013-02-12 02:09:00,59.7,56.2,30.21,SE,124,0.0,0.0,88,0.00,,---,0.00,VWS V14.01,2013-02-12 07:09:00,
2013-02-12 02:14:00,59.7,56.2,30.21,SE,125,0.0,0.0,88,0.00,,---,0.00,VWS V14.01,2013-02-12 07:14:00,
2013-02-12 02:19:00,59.7,55.8,30.21,SE,125,0.0,0.0,87,0.00,,---,0.00,VWS V14.01,2013-02-12 07:19:00,
2013-02-12 02:24:00,59.5,55.7,30.21,SE,125,0.0,0.0,87,0.00,,---,0.00,VWS V14.01,2013-02-12 07:24:00,
2013-02-12 02:29:00,59.5,56.0,30.21,SE,124,0.0,0.0,88,0.00,,---,0.00,VWS V14.01,2013-02-12 07:29:00,
2013-02-12 02:34:00,59.5,56.0,30.21,SE,124,0.0,0.0,88,0.00,,---,0.00,VWS V14.01,2013-02-12 07:34:00,
2013-02-12 02:39:00,59.5,56.0,30.21,SE,124,0.0,0.0,88,0.00,,---,0.00,VWS V14.01,2013-02-12 07:39:00,
2013-02-12 02:44:00,59.4,56.1,30.21,SE,125,0.0,0.0,89,0.00,,---,0.00,VWS V14.01,2013-02-12 07:44:00,
2013-02-12 02:49:00,59.4,56.4,30.21,SE,125,0.0,0.0,90,0.00,,---,0.00,VWS V14.01,2013-02-12 07:49:00,
2013-02-12 02:54:00,59.4,56.7,30.21,SE,125,0.0,0.0,91,0.00,,---,0.00,VWS V14.01,2013-02-12 07:54:00,
2013-02-12 02:59:00,59.4,56.7,30.21,SE,125,0.0,0.0,91,0.00,,---,0.00,VWS V14.01,2013-02-12 07:59:00,
2013-02-12 03:04:00,59.4,56.7,30.21,SE,124,0.0,0.0,91,0.00,,---,0.00,VWS V14.01,2013-02-12 08:04:00,
2013-02-12 03:10:00,59.4,56.4,30.21,SE,125,0.0,0.0,90,0.00,,---,0.00,VWS V14.01,2013-02-12 08:10:00,
2013-02-12 03:15:00,59.4,56.7,30.21,SE,124,0.0,0.0,91,0.00,,---,0.00,VWS V14.01,2013-02-12 08:15:00,
2013-02-12 03:20:00,59.2,56.9,30.21,SE,125,0.0,0.0,92,0.00,,---,0.00,VWS V14.01,2013-02-12 08:20:00,
2013-02-12 03:25:00,59.2,56.9,30.21,SE,124,0.0,0.0,92,0.00,,---,0.00,VWS V14.01,2013-02-12 08:25:00,
2013-02-12 03:30:00,59.2,56.9,30.21,SE,125,0.0,0.0,92,0.00,,---,0.00,VWS V14.01,2013-02-12 08:30:00,
2013-02-12 03:35:00,59.2,56.9,30.21,SE,125,0.0,0.0,92,0.00,,---,0.00,VWS V14.01,2013-02-12 08:35:00,
2013-02-12 03:40:00,59.0,56.4,30.21,SE,124,0.0,0.0,91,0.00,,---,0.00,VWS V14.01,2013-02-12 08:40:00,
2013-02-12 03:45:00,59.0,56.7,30.21,SE,125,0.0,0.0,92,0.00,,---,0.00,VWS V14.01,2013-02-12 08:45:00,
2013-02-12 03:50:00,59.0,56.7,30.21,SE,124,0.0,0.0,92,0.00,,---,0.00,VWS V14.01,2013-02-12 08:50:00,
2013-02-12 03:55:00,59.2,56.9,30.21,SE,125,0.0,0.0,92,0.00,,---,0.00,VWS V14.01,2013-02-12 08:55:00,
2013-02-12 04:00:00,59.2,56.9,30.21,SE,124,0.0,0.0,92,0.00,,---,0.00,VWS V14.01,2013-02-12 09:00:00,
2013-02-12 04:05:00,59.4,57.0,30.21,SE,125,0.0,0.0,92,0.00,,---,0.00,VWS V14.01,2013-02-12 09:05:00,
2013-02-12 04:10:00,59.4,57.0,30.21,SE,125,0.0,0.0,92,0.00,,---,0.00,VWS V14.01,2013-02-12 09:10:00,
2013-02-12 04:15:00,59.4,56.7,30.21,SE,125,0.0,0.0,91,0.00,,---,0.00,VWS V14.01,2013-02-12 09:15:00,
2013-02-12 04:20:00,59.4,57.0,30.21,SE,124,0.0,0.0,92,0.00,,---,0.00,VWS V14.01,2013-02-12 09:20:00,
2013-02-12 04:25:00,59.2,57.2,30.21,SE,124,0.0,0.0,93,0.00,,---,0.00,VWS V14.01,2013-02-12 09:25:00,
2013-02-12 04:30:00,59.2,57.2,30.21,SE,125,0.0,0.0,93,0.00,,---,0.00,VWS V14.01,2013-02-12 09:30:00,
2013-02-12 04:36:00,59.2,57.2,30.21,SE,125,0.0,0.0,93,0.00,,---,0.00,VWS V14.01,2013-02-12 09:36:00,
2013-02-12 04:41:00,59.2,57.2,30.21,SE,125,0.0,0.0,93,0.00,,---,0.00,VWS V14.01,2013-02-12 09:41:00,
2013-02-12 04:46:00,59.2,57.2,30.21,SE,125,0.0,0.0,93,0.00,,---,0.00,VWS V14.01,2013-02-12 09:46:00,
2013-02-12 04:51:00,59.2,57.5,30.21,SE,124,0.0,0.0,94,0.00,,---,0.00,VWS V14.01,2013-02-12 09:51:00,
2013-02-12 04:56:00,59.2,57.5,30.21,SE,125,0.0,0.0,94,0.00,,---,0.00,VWS V14.01,2013-02-12 09:56:00,
2013-02-12 05:01:00,59.2,57.5,30.21,SE,125,0.0,0.0,94,0.00,,---,0.00,VWS V14.01,2013-02-12 10:01:00,
2013-02-12 05:06:00,59.2,57.5,30.21,SE,125,0.0,0.0,94,0.00,,---,0.00,VWS V14.01,2013-02-12 10:06:00,
2013-02-12 05:11:00,59.2,57.2,30.21,SE,124,0.0,0.0,93,0.00,,---,0.00,VWS V14.01,2013-02-12 10:11:00,
2013-02-12 05:16:00,59.2,57.2,30.21,SE,124,0.0,0.0,93,0.00,,---,0.00,VWS V14.01,2013-02-12 10:16:00,
2013-02-12 05:21:00,59.2,57.2,30.21,SE,124,0.0,0.0,93,0.00,,---,0.00,VWS V14.01,2013-02-12 10:21:00,
2013-02-12 05:26:00,59.2,57.2,30.21,SE,124,0.0,0.0,93,0.00,,---,0.00,VWS V14.01,2013-02-12 10:26:00,
2013-02-12 05:31:00,59.0,57.0,30.21,SE,125,0.0,0.0,93,0.00,,---,0.00,VWS V14.01,2013-02-12 10:31:00,
2013-02-12 05:36:00,59.2,57.5,30.21,SE,124,0.0,0.0,94,0.00,,---,0.00,VWS V14.01,2013-02-12 10:36:00,
2013-02-12 05:41:00,59.4,57.6,30.21,SE,124,0.0,0.0,94,0.00,,---,0.00,VWS V14.01,2013-02-12 10:41:00,
2013-02-12 05:46:00,59.2,57.5,30.21,SE,125,0.0,0.0,94,0.00,,---,0.00,VWS V14.01,2013-02-12 10:46:00,
2013-02-12 05:51:00,59.2,57.5,30.21,SE,125,0.0,0.0,94,0.00,,---,0.00,VWS V14.01,2013-02-12 10:51:00,
2013-02-12 05:56:00,59.4,57.9,30.21,SE,124,0.0,0.0,95,0.00,,---,0.00,VWS V14.01,2013-02-12 10:56:00,
2013-02-12 06:02:00,59.7,58.3,30.21,SE,124,0.0,0.0,95,0.00,,---,0.00,VWS V14.01,2013-02-12 11:02:00,
2013-02-12 06:07:00,59.7,58.3,30.21,SE,125,0.0,0.0,95,0.00,,---,0.00,VWS V14.01,2013-02-12 11:07:00,
2013-02-12 06:12:00,59.9,58.5,30.21,SE,125,0.0,0.0,95,0.00,,---,0.00,VWS V14.01,2013-02-12 11:12:00,
2013-02-12 06:17:00,59.9,58.5,30.21,SE,125,0.0,0.0,95,0.00,,---,0.00,VWS V14.01,2013-02-12 11:17:00,
2013-02-12 06:22:00,60.3,58.8,30.21,SE,125,0.0,0.0,95,0.00,,---,0.00,VWS V14.01,2013-02-12 11:22:00,
2013-02-12 06:27:00,60.3,58.8,30.21,SE,124,0.0,0.0,95,0.00,,---,0.00,VWS V14.01,2013-02-12 11:27:00,
2013-02-12 06:32:00,60.3,58.8,30.21,SE,124,0.0,0.0,95,0.00,,---,0.00,VWS V14.01,2013-02-12 11:32:00,
2013-02-12 06:37:00,60.4,59.0,30.21,SE,125,0.0,0.0,95,0.00,,---,0.00,VWS V14.01,2013-02-12 11:37:00,
2013-02-12 06:42:00,60.4,59.0,30.21,SE,125,0.0,0.0,95,0.00,,---,0.00,VWS V14.01,2013-02-12 11:42:00,
2013-02-12 06:47:00,60.6,59.2,30.21,SE,124,0.0,0.0,95,0.00,,---,0.00,VWS V14.01,2013-02-12 11:47:00,
2013-02-12 06:52:00,60.6,59.2,30.21,SE,125,0.0,0.0,95,0.00,,---,0.00,VWS V14.01,2013-02-12 11:52:00,
2013-02-12 06:57:00,60.8,59.4,30.21,SE,125,0.0,0.0,95,0.00,,---,0.00,VWS V14.01,2013-02-12 11:57:00,
2013-02-12 07:02:00,60.8,59.4,30.21,SE,125,0.0,0.0,95,0.00,,---,0.00,VWS V14.01,2013-02-12 12:02:00,
2013-02-12 07:07:00,61.0,59.5,30.21,SE,125,0.0,0.0,95,0.00,,---,0.00,VWS V14.01,2013-02-12 12:07:00,
2013-02-12 07:12:00,61.3,59.9,30.21,SE,125,0.0,0.0,95,0.00,,---,0.00,VWS V14.01,2013-02-12 12:12:00,
2013-02-12 07:18:00,61.3,59.9,30.18,SE,125,0.0,0.0,95,0.00,,---,0.00,VWS V14.01,2013-02-12 12:18:00,
2013-02-12 07:23:00,61.2,59.7,30.18,SE,125,0.0,0.0,95,0.00,,---,0.00,VWS V14.01,2013-02-12 12:23:00,
2013-02-12 07:28:00,61.3,59.9,30.21,SE,125,0.0,0.0,95,0.00,,---,0.00,VWS V14.01,2013-02-12 12:28:00,
2013-02-12 07:33:00,61.5,59.8,30.21,SE,124,0.0,0.0,94,0.00,,---,0.00,VWS V14.01,2013-02-12 12:33:00,
2013-02-12 07:38:00,61.7,60.0,30.21,SE,125,0.0,0.0,94,0.00,,---,0.00,VWS V14.01,2013-02-12 12:38:00,
2013-02-12 07:43:00,61.7,60.0,30.21,SE,124,0.0,0.0,94,0.00,,---,0.00,VWS V14.01,2013-02-12 12:43:00,
2013-02-12 07:48:00,61.7,60.0,30.21,SE,125,0.0,0.0,94,0.00,,---,0.00,VWS V14.01,2013-02-12 12:48:00,
2013-02-12 07:53:00,64.2,62.8,30.21,SE,124,0.0,0.0,95,0.00,,---,0.00,VWS V14.01,2013-02-12 12:53:00,
2013-02-12 07:58:00,65.7,64.2,30.21,SE,125,0.0,0.0,95,0.00,,---,0.00,VWS V14.01,2013-02-12 12:58:00,
2013-02-12 08:03:00,66.9,65.4,30.21,SE,125,0.0,0.0,95,0.00,,---,0.00,VWS V14.01,2013-02-12 13:03:00,
2013-02-12 08:08:00,67.6,65.9,30.21,SE,124,0.0,0.0,94,0.00,,---,0.00,VWS V14.01,2013-02-12 13:08:00,
2013-02-12 08:13:00,68.2,65.8,30.21,SSE,166,0.0,2.2,92,0.00,,---,0.00,VWS V14.01,2013-02-12 13:13:00,
2013-02-12 08:18:00,68.5,65.8,30.21,SSE,168,0.0,0.0,91,0.00,,---,0.00,VWS V14.01,2013-02-12 13:18:00,
2013-02-12 08:23:00,69.3,66.2,30.21,SSE,154,2.7,2.7,90,0.00,,---,0.00,VWS V14.01,2013-02-12 13:23:00,
2013-02-12 08:28:00,69.6,66.2,30.21,SE,139,2.7,2.7,89,0.00,,---,0.00,VWS V14.01,2013-02-12 13:28:00,
2013-02-12 08:33:00,70.2,65.8,30.21,SSE,150,0.0,0.0,86,0.00,,---,0.00,VWS V14.01,2013-02-12 13:33:00,
2013-02-12 08:38:00,70.7,64.6,30.21,SE,126,3.1,3.1,81,0.00,,---,0.00,VWS V14.01,2013-02-12 13:38:00,
2013-02-12 08:44:00,71.8,64.2,30.21,SSE,160,0.0,3.1,77,0.00,,---,0.00,VWS V14.01,2013-02-12 13:44:00,
2013-02-12 08:49:00,72.5,51.7,30.21,ESE,119,2.7,3.6,48,0.00,,---,0.00,VWS V14.01,2013-02-12 13:49:00,
2013-02-12 08:54:00,74.1,50.2,30.21,South,174,3.1,3.1,43,0.00,,---,0.00,VWS V14.01,2013-02-12 13:54:00,
2013-02-12 08:59:00,75.4,50.1,30.21,South,171,5.8,5.8,41,0.00,,---,0.00,VWS V14.01,2013-02-12 13:59:00,
2013-02-12 09:04:00,77.2,45.9,30.21,SSE,158,0.0,2.7,33,0.00,,---,0.00,VWS V14.01,2013-02-12 14:04:00,
2013-02-12 09:09:00,78.1,45.0,30.21,SE,143,5.4,5.4,31,0.00,,---,0.00,VWS V14.01,2013-02-12 14:09:00,
2013-02-12 09:14:00,79.2,45.1,30.21,South,187,3.1,4.5,30,0.00,,---,0.00,VWS V14.01,2013-02-12 14:14:00,
2013-02-12 09:19:00,79.3,45.2,30.21,South,184,3.1,7.6,30,0.00,,---,0.00,VWS V14.01,2013-02-12 14:19:00,
2013-02-12 09:24:00,81.0,42.9,30.21,SSW,194,7.6,7.6,26,0.00,,---,0.00,VWS V14.01,2013-02-12 14:24:00,
2013-02-12 09:29:00,83.1,42.6,30.21,ESE,120,2.7,2.7,24,0.00,,---,0.00,VWS V14.01,2013-02-12 14:29:00,
2013-02-12 09:34:00,83.3,40.5,30.21,South,185,4.0,4.0,22,0.00,,---,0.00,VWS V14.01,2013-02-12 14:34:00,
2013-02-12 09:39:00,83.7,42.0,30.21,SE,132,3.1,7.6,23,0.00,,---,0.00,VWS V14.01,2013-02-12 14:39:00,
2013-02-12 09:44:00,84.9,40.7,30.24,SE,142,5.8,5.8,21,0.00,,---,0.00,VWS V14.01,2013-02-12 14:44:00,
2013-02-12 09:49:00,85.6,41.3,30.24,SSE,150,8.1,8.1,21,0.00,,---,0.00,VWS V14.01,2013-02-12 14:49:00,
2013-02-12 09:54:00,84.6,40.4,30.24,SSW,193,8.3,8.3,21,0.00,,---,0.00,VWS V14.01,2013-02-12 14:54:00,
2013-02-12 09:59:00,85.6,41.3,30.24,SSE,150,3.6,3.6,21,0.00,,---,0.00,VWS V14.01,2013-02-12 14:59:00,
2013-02-12 10:05:00,86.0,40.3,30.24,SSE,166,5.8,5.8,20,0.00,,---,0.00,VWS V14.01,2013-02-12 15:05:00,
2013-02-12 10:10:00,87.3,41.3,30.24,South,174,3.1,6.3,20,0.00,,---,0.00,VWS V14.01,2013-02-12 15:10:00,
2013-02-12 10:15:00,88.7,41.2,30.24,SE,139,5.4,5.4,19,0.00,,---,0.00,VWS V14.01,2013-02-12 15:15:00,
2013-02-12 10:20:00,87.6,40.3,30.24,South,175,5.8,5.8,19,0.00,,---,0.00,VWS V14.01,2013-02-12 15:20:00,
2013-02-12 10:25:00,86.0,40.3,30.24,South,191,2.2,5.4,20,0.00,,---,0.00,VWS V14.01,2013-02-12 15:25:00,
2013-02-12 10:30:00,87.8,40.5,30.24,SW,225,3.6,3.6,19,0.00,,---,0.00,VWS V14.01,2013-02-12 15:30:00,
2013-02-12 10:35:00,87.8,40.5,30.24,SSW,192,3.1,3.1,19,0.00,,---,0.00,VWS V14.01,2013-02-12 15:35:00,
2013-02-12 10:40:00,89.4,41.8,30.24,South,174,2.7,4.0,19,0.00,,---,0.00,VWS V14.01,2013-02-12 15:40:00,
2013-02-12 10:45:00,91.2,41.8,30.24,SSE,155,0.0,0.0,18,0.00,,---,0.00,VWS V14.01,2013-02-12 15:45:00,
2013-02-12 10:50:00,90.3,41.1,30.24,WSW,241,0.0,0.0,18,0.00,,---,0.00,VWS V14.01,2013-02-12 15:50:00,
2013-02-12 10:55:00,89.6,40.5,30.24,SSE,158,0.0,0.0,18,0.00,,---,0.00,VWS V14.01,2013-02-12 15:55:00,
2013-02-12 11:00:00,90.7,41.4,30.24,South,169,3.6,4.0,18,0.00,,---,0.00,VWS V14.01,2013-02-12 16:00:00,
2013-02-12 11:05:00,90.3,41.1,30.24,SSE,164,0.0,0.0,18,0.00,,---,0.00,VWS V14.01,2013-02-12 16:05:00,
2013-02-12 11:10:00,91.6,40.7,30.24,South,169,3.1,3.6,17,0.00,,---,0.00,VWS V14.01,2013-02-12 16:10:00,
2013-02-12 11:15:00,92.8,41.7,30.24,SSE,158,3.6,3.6,17,0.00,,---,0.00,VWS V14.01,2013-02-12 16:15:00,
2013-02-12 11:20:00,91.8,40.8,30.24,South,177,3.6,3.6,17,0.00,,---,0.00,VWS V14.01,2013-02-12 16:20:00,
2013-02-12 11:25:00,92.8,41.7,30.21,SE,146,5.8,5.8,17,0.00,,---,0.00,VWS V14.01,2013-02-12 16:25:00,
2013-02-12 11:30:00,92.8,41.7,30.21,SW,233,2.7,2.7,17,0.00,,---,0.00,VWS V14.01,2013-02-12 16:30:00,
2013-02-12 11:35:00,91.6,40.7,30.21,SW,226,3.1,6.3,17,0.00,,---,0.00,VWS V14.01,2013-02-12 16:35:00,
2013-02-12 11:41:00,91.9,40.9,30.21,SE,142,2.2,2.2,17,0.00,,---,0.00,VWS V14.01,2013-02-12 16:41:00,
2013-02-12 11:46:00,93.4,42.1,30.21,South,183,3.1,6.3,17,0.00,,---,0.00,VWS V14.01,2013-02-12 16:46:00,
2013-02-12 11:51:00,94.5,41.4,30.21,SW,227,3.6,3.6,16,0.00,,---,0.00,VWS V14.01,2013-02-12 16:51:00,
2013-02-12 11:56:00,96.3,42.8,30.21,SSE,159,4.0,5.8,16,0.00,,---,0.00,VWS V14.01,2013-02-12 16:56:00,
2013-02-12 12:01:00,93.7,40.8,30.21,SW,229,0.0,3.6,16,0.00,,---,0.00,VWS V14.01,2013-02-12 17:01:00,
2013-02-12 12:06:00,93.4,40.5,30.21,West,263,5.4,5.4,16,0.00,,---,0.00,VWS V14.01,2013-02-12 17:06:00,
2013-02-12 12:11:00,92.3,41.2,30.21,SW,224,3.6,3.6,17,0.00,,---,0.00,VWS V14.01,2013-02-12 17:11:00,
2013-02-12 12:16:00,91.9,40.9,30.21,SSW,212,0.0,0.0,17,0.00,,---,0.00,VWS V14.01,2013-02-12 17:16:00,
2013-02-12 12:21:00,93.2,40.4,30.21,SSE,154,2.7,2.7,16,0.00,,---,0.00,VWS V14.01,2013-02-12 17:21:00,
2013-02-12 12:26:00,93.2,40.4,30.21,WSW,248,0.0,0.0,16,0.00,,---,0.00,VWS V14.01,2013-02-12 17:26:00,
2013-02-12 12:31:00,93.9,41.0,30.21,SE,124,3.1,3.1,16,0.00,,---,0.00,VWS V14.01,2013-02-12 17:31:00,
2013-02-12 12:36:00,95.4,42.1,30.21,WSW,244,0.0,4.0,16,0.00,,---,0.00,VWS V14.01,2013-02-12 17:36:00,
2013-02-12 12:41:00,93.9,37.5,30.21,WSW,247,2.7,2.7,14,0.00,,---,0.00,VWS V14.01,2013-02-12 17:41:00,
2013-02-12 12:46:00,89.6,39.1,30.21,South,169,2.7,2.7,17,0.00,,---,0.00,VWS V14.01,2013-02-12 17:46:00,
2013-02-12 12:51:00,89.6,39.1,30.21,WSW,245,3.1,4.0,17,0.00,,---,0.00,VWS V14.01,2013-02-12 17:51:00,
2013-02-12 12:57:00,88.2,39.4,30.21,WSW,252,2.7,5.8,18,0.00,,---,0.00,VWS V14.01,2013-02-12 17:57:00,
2013-02-12 13:02:00,93.4,40.5,30.21,SE,124,2.2,2.2,16,0.00,,---,0.00,VWS V14.01,2013-02-12 18:02:00,
2013-02-12 13:07:00,95.4,42.1,30.18,West,275,0.0,4.9,16,0.00,,---,0.00,VWS V14.01,2013-02-12 18:07:00,
2013-02-12 13:12:00,96.4,43.0,30.18,SSW,206,3.6,7.6,16,0.00,,---,0.00,VWS V14.01,2013-02-12 18:12:00,
2013-02-12 13:17:00,93.7,40.8,30.18,West,279,2.7,2.7,16,0.00,,---,0.00,VWS V14.01,2013-02-12 18:17:00,
2013-02-12 13:22:00,95.9,42.5,30.18,SW,236,0.0,2.2,16,0.00,,---,0.00,VWS V14.01,2013-02-12 18:22:00,
2013-02-12 13:27:00,94.8,41.7,30.18,WSW,256,2.2,2.2,16,0.00,,---,0.00,VWS V14.01,2013-02-12 18:27:00,
2013-02-12 13:32:00,96.4,43.0,30.18,NW,304,6.3,6.3,16,0.00,,---,0.00,VWS V14.01,2013-02-12 18:32:00,
2013-02-12 13:37:00,98.2,39.0,30.15,WSW,244,5.4,5.4,13,0.00,,---,0.00,VWS V14.01,2013-02-12 18:37:00,
2013-02-12 13:42:00,98.4,44.5,30.15,NW,321,2.2,2.2,16,0.00,,---,0.00,VWS V14.01,2013-02-12 18:42:00,
2013-02-12 13:47:00,97.0,38.0,30.15,SW,236,4.0,4.0,13,0.00,,---,0.00,VWS V14.01,2013-02-12 18:47:00,
2013-02-12 13:52:00,99.3,39.9,30.15,West,270,3.1,7.6,13,0.00,,---,0.00,VWS V14.01,2013-02-12 18:52:00,
2013-02-12 13:57:00,95.0,38.4,30.15,SW,231,0.0,0.0,14,0.00,,---,0.00,VWS V14.01,2013-02-12 18:57:00,
2013-02-12 14:02:00,96.3,39.4,30.15,West,270,0.0,0.0,14,0.00,,---,0.00,VWS V14.01,2013-02-12 19:02:00,
2013-02-12 14:07:00,98.4,39.2,30.15,West,261,3.6,3.6,13,0.00,,---,0.00,VWS V14.01,2013-02-12 19:07:00,
2013-02-12 14:12:00,99.3,39.9,30.15,SW,224,2.7,5.8,13,0.00,,---,0.00,VWS V14.01,2013-02-12 19:12:00,
2013-02-12 14:17:00,97.5,38.5,30.15,West,280,2.7,2.7,13,0.00,,---,0.00,VWS V14.01,2013-02-12 19:17:00,
2013-02-12 14:23:00,99.3,39.9,30.15,West,280,0.0,4.0,13,0.00,,---,0.00,VWS V14.01,2013-02-12 19:23:00,
2013-02-12 14:28:00,96.1,39.2,30.15,SW,235,0.0,0.0,14,0.00,,---,0.00,VWS V14.01,2013-02-12 19:28:00,
2013-02-12 14:33:00,91.8,35.8,30.15,West,279,6.3,6.3,14,0.00,,---,0.00,VWS V14.01,2013-02-12 19:33:00,
2013-02-12 14:38:00,89.1,40.1,30.15,West,262,0.0,0.0,18,0.00,,---,0.00,VWS V14.01,2013-02-12 19:38:00,
2013-02-12 14:43:00,89.6,39.1,30.15,WSW,241,0.0,0.0,17,0.00,,---,0.00,VWS V14.01,2013-02-12 19:43:00,
2013-02-12 14:48:00,90.5,39.8,30.15,West,277,3.6,3.6,17,0.00,,---,0.00,VWS V14.01,2013-02-12 19:48:00,
2013-02-12 14:53:00,95.2,42.0,30.15,WNW,301,2.7,2.7,16,0.00,,---,0.00,VWS V14.01,2013-02-12 19:53:00,
2013-02-12 14:58:00,97.7,44.0,30.15,WSW,255,5.8,5.8,16,0.00,,---,0.00,VWS V14.01,2013-02-12 19:58:00,
2013-02-12 15:03:00,99.1,39.7,30.15,SW,234,0.0,0.0,13,0.00,,---,0.00,VWS V14.01,2013-02-12 20:03:00,
2013-02-12 15:08:00,97.3,38.3,30.15,SSW,209,3.6,4.0,13,0.00,,---,0.00,VWS V14.01,2013-02-12 20:08:00,
2013-02-12 15:13:00,99.0,39.6,30.12,SW,232,2.7,3.6,13,0.00,,---,0.00,VWS V14.01,2013-02-12 20:13:00,
2013-02-12 15:18:00,97.2,38.2,30.12,WSW,254,3.6,3.6,13,0.00,,---,0.00,VWS V14.01,2013-02-12 20:18:00,
2013-02-12 15:23:00,97.9,38.8,30.12,South,183,3.6,3.6,13,0.00,,---,0.00,VWS V14.01,2013-02-12 20:23:00,
2013-02-12 15:28:00,96.4,39.5,30.12,SW,234,2.7,3.6,14,0.00,,---,0.00,VWS V14.01,2013-02-12 20:28:00,
2013-02-12 15:33:00,94.8,38.2,30.12,WSW,244,2.7,2.7,14,0.00,,---,0.00,VWS V14.01,2013-02-12 20:33:00,
2013-02-12 15:39:00,90.0,39.3,30.12,SSW,192,2.2,2.2,17,0.00,,---,0.00,VWS V14.01,2013-02-12 20:39:00,
2013-02-12 15:44:00,90.1,41.0,30.12,SE,138,5.4,5.4,18,0.00,,---,0.00,VWS V14.01,2013-02-12 20:44:00,
2013-02-12 15:49:00,89.2,41.6,30.12,SE,142,7.6,7.6,19,0.00,,---,0.00,VWS V14.01,2013-02-12 20:49:00,
2013-02-12 15:54:00,88.2,42.1,30.12,ESE,123,6.3,6.3,20,0.00,,---,0.00,VWS V14.01,2013-02-12 20:54:00,
2013-02-12 15:59:00,85.1,44.3,30.12,SSE,168,6.3,6.3,24,0.00,,---,0.00,VWS V14.01,2013-02-12 20:59:00,
2013-02-12 16:04:00,83.1,44.7,30.12,SSE,163,3.1,3.1,26,0.00,,---,0.00,VWS V14.01,2013-02-12 21:04:00,
2013-02-12 16:09:00,82.4,47.0,30.12,South,188,4.0,5.4,29,0.00,,---,0.00,VWS V14.01,2013-02-12 21:09:00,
2013-02-12 16:14:00,82.6,47.1,30.12,SE,141,6.7,8.1,29,0.00,,---,0.00,VWS V14.01,2013-02-12 21:14:00,
2013-02-12 16:19:00,83.1,46.7,30.12,SE,140,8.1,8.1,28,0.00,,---,0.00,VWS V14.01,2013-02-12 21:19:00,
2013-02-12 16:24:00,83.7,47.1,30.09,East,101,5.8,6.3,28,0.00,,---,0.00,VWS V14.01,2013-02-12 21:24:00,
2013-02-12 16:29:00,84.4,44.8,30.09,SSE,157,4.0,4.0,25,0.00,,---,0.00,VWS V14.01,2013-02-12 21:29:00,
2013-02-12 16:34:00,84.2,44.6,30.09,SSE,161,4.9,6.3,25,0.00,,---,0.00,VWS V14.01,2013-02-12 21:34:00,
2013-02-12 16:39:00,82.6,45.2,30.09,SSE,147,6.3,6.3,27,0.00,,---,0.00,VWS V14.01,2013-02-12 21:39:00,
2013-02-12 16:44:00,82.4,45.1,30.09,SW,233,3.1,3.1,27,0.00,,---,0.00,VWS V14.01,2013-02-12 21:44:00,
2013-02-12 16:49:00,82.0,45.8,30.09,South,170,7.6,7.6,28,0.00,,---,0.00,VWS V14.01,2013-02-12 21:49:00,
2013-02-12 16:55:00,81.3,46.1,30.09,South,191,0.0,7.6,29,0.00,,---,0.00,VWS V14.01,2013-02-12 21:55:00,
2013-02-12 17:00:00,81.0,45.8,30.09,South,169,3.6,7.6,29,0.00,,---,0.00,VWS V14.01,2013-02-12 22:00:00,
2013-02-12 17:05:00,80.6,46.3,30.09,SSE,167,3.1,3.1,30,0.00,,---,0.00,VWS V14.01,2013-02-12 22:05:00,
2013-02-12 17:10:00,80.2,46.0,30.09,South,173,4.0,4.0,30,0.00,,---,0.00,VWS V14.01,2013-02-12 22:10:00,
2013-02-12 17:15:00,79.9,46.6,30.09,ESE,102,3.6,3.6,31,0.00,,---,0.00,VWS V14.01,2013-02-12 22:15:00,
2013-02-12 17:20:00,80.6,46.3,30.09,SE,142,6.3,8.3,30,0.00,,---,0.00,VWS V14.01,2013-02-12 22:20:00,
2013-02-12 17:25:00,81.3,46.1,30.09,SE,133,7.6,7.6,29,0.00,,---,0.00,VWS V14.01,2013-02-12 22:25:00,
2013-02-12 17:30:00,81.5,46.2,30.09,South,185,4.0,4.0,29,0.00,,---,0.00,VWS V14.01,2013-02-12 22:30:00,
2013-02-12 17:35:00,79.3,46.1,30.09,SE,142,4.9,4.9,31,0.00,,---,0.00,VWS V14.01,2013-02-12 22:35:00,
2013-02-12 17:40:00,78.3,46.0,30.09,South,182,5.8,5.8,32,0.00,,---,0.00,VWS V14.01,2013-02-12 22:40:00,
2013-02-12 17:45:00,77.7,46.3,30.12,SSE,152,7.6,7.6,33,0.00,,---,0.00,VWS V14.01,2013-02-12 22:45:00,
2013-02-12 17:50:00,77.7,46.3,30.12,South,191,0.0,3.6,33,0.00,,---,0.00,VWS V14.01,2013-02-12 22:50:00,
2013-02-12 17:55:00,76.6,47.0,30.12,ESE,108,3.6,3.6,35,0.00,,---,0.00,VWS V14.01,2013-02-12 22:55:00,
2013-02-12 18:00:00,76.1,47.2,30.12,SE,140,3.1,3.1,36,0.00,,---,0.00,VWS V14.01,2013-02-12 23:00:00,
2013-02-12 18:06:00,75.9,47.8,30.12,SSW,199,3.1,3.1,37,0.00,,---,0.00,VWS V14.01,2013-02-12 23:06:00,
2013-02-12 18:11:00,75.7,47.7,30.12,SSE,160,0.0,0.0,37,0.00,,---,0.00,VWS V14.01,2013-02-12 23:11:00,
2013-02-12 18:16:00,75.2,48.6,30.12,SE,138,2.7,2.7,39,0.00,,---,0.00,VWS V14.01,2013-02-12 23:16:00,
2013-02-12 18:21:00,75.0,49.1,30.12,SSE,160,3.1,4.0,40,0.00,,---,0.00,VWS V14.01,2013-02-12 23:21:00,
2013-02-12 18:26:00,75.0,49.1,30.12,SSE,149,4.9,4.9,40,0.00,,---,0.00,VWS V14.01,2013-02-12 23:26:00,
2013-02-12 18:31:00,75.4,48.7,30.12,SSW,211,4.0,4.0,39,0.00,,---,0.00,VWS V14.01,2013-02-12 23:31:00,
2013-02-12 18:36:00,75.4,48.7,30.12,SSE,147,3.1,4.0,39,0.00,,---,0.00,VWS V14.01,2013-02-12 23:36:00,
2013-02-12 18:41:00,74.8,49.6,30.12,SE,131,5.4,5.8,41,0.00,,---,0.00,VWS V14.01,2013-02-12 23:41:00,
2013-02-12 18:46:00,74.3,49.8,30.12,SSE,165,4.0,4.0,42,0.00,,---,0.00,VWS V14.01,2013-02-12 23:46:00,
2013-02-12 18:51:00,73.9,49.4,30.12,South,171,2.7,2.7,42,0.00,,---,0.00,VWS V14.01,2013-02-12 23:51:00,
2013-02-12 18:56:00,73.8,49.9,30.12,SSE,157,2.7,5.4,43,0.00,,---,0.00,VWS V14.01,2013-02-12 23:56:00,
2013-02-12 19:01:00,73.2,50.0,30.12,SSE,150,2.7,4.9,44,0.00,,---,0.00,VWS V14.01,2013-02-13 00:01:00,
2013-02-12 19:06:00,73.0,50.5,30.12,SE,127,2.7,3.1,45,0.00,,---,0.00,VWS V14.01,2013-02-13 00:06:00,
2013-02-12 19:11:00,73.0,51.1,30.12,South,172,2.2,2.2,46,0.00,,---,0.00,VWS V14.01,2013-02-13 00:11:00,
2013-02-12 19:16:00,72.9,50.9,30.12,SE,135,2.7,5.4,46,0.00,,---,0.00,VWS V14.01,2013-02-13 00:16:00,
2013-02-12 19:22:00,72.9,50.9,30.12,SSE,153,4.9,4.9,46,0.00,,---,0.00,VWS V14.01,2013-02-13 00:22:00,
2013-02-12 19:27:00,72.9,50.9,30.12,South,170,2.7,5.4,46,0.00,,---,0.00,VWS V14.01,2013-02-13 00:27:00,
2013-02-12 19:32:00,72.9,50.9,30.12,South,173,5.8,5.8,46,0.00,,---,0.00,VWS V14.01,2013-02-13 00:32:00,
2013-02-12 19:37:00,72.7,51.3,30.12,SSW,193,4.9,4.9,47,0.00,,---,0.00,VWS V14.01,2013-02-13 00:37:00,
2013-02-12 19:42:00,72.7,51.3,30.12,SSE,163,4.0,4.0,47,0.00,,---,0.00,VWS V14.01,2013-02-13 00:42:00,
2013-02-12 19:47:00,72.5,51.2,30.12,SE,141,4.0,4.0,47,0.00,,---,0.00,VWS V14.01,2013-02-13 00:47:00,
2013-02-12 19:52:00,72.3,51.5,30.12,SE,129,8.3,8.3,48,0.00,,---,0.00,VWS V14.01,2013-02-13 00:52:00,
2013-02-12 19:57:00,72.3,51.5,30.09,ESE,104,8.1,8.1,48,0.00,,---,0.00,VWS V14.01,2013-02-13 00:57:00,
2013-02-12 20:02:00,72.1,51.4,30.09,South,169,0.0,3.1,48,0.00,,---,0.00,VWS V14.01,2013-02-13 01:02:00,
2013-02-12 20:07:00,72.0,51.8,30.09,South,178,0.0,2.7,49,0.00,,---,0.00,VWS V14.01,2013-02-13 01:07:00,
2013-02-12 20:12:00,71.6,51.5,30.12,SSE,165,3.6,4.0,49,0.00,,---,0.00,VWS V14.01,2013-02-13 01:12:00,
2013-02-12 20:17:00,71.6,52.0,30.12,SE,137,2.7,3.6,50,0.00,,---,0.00,VWS V14.01,2013-02-13 01:17:00,
2013-02-12 20:22:00,71.4,52.4,30.12,SE,133,0.0,2.7,51,0.00,,---,0.00,VWS V14.01,2013-02-13 01:22:00,
2013-02-12 20:27:00,71.2,52.2,30.12,SSW,192,4.0,4.0,51,0.00,,---,0.00,VWS V14.01,2013-02-13 01:27:00,
2013-02-12 20:32:00,71.2,52.2,30.12,SE,142,3.6,3.6,51,0.00,,---,0.00,VWS V14.01,2013-02-13 01:32:00,
2013-02-12 20:38:00,71.4,51.8,30.12,South,182,4.9,4.9,50,0.00,,---,0.00,VWS V14.01,2013-02-13 01:38:00,
2013-02-12 20:43:00,71.2,51.1,30.12,SSE,154,0.0,0.0,49,0.00,,---,0.00,VWS V14.01,2013-02-13 01:43:00,
2013-02-12 20:48:00,71.1,51.5,30.12,SE,146,3.1,6.3,50,0.00,,---,0.00,VWS V14.01,2013-02-13 01:48:00,
2013-02-12 20:53:00,71.2,52.2,30.12,SSE,165,0.0,0.0,51,0.00,,---,0.00,VWS V14.01,2013-02-13 01:53:00,
2013-02-12 20:58:00,71.2,52.2,30.12,South,188,0.0,0.0,51,0.00,,---,0.00,VWS V14.01,2013-02-13 01:58:00,
2013-02-12 21:03:00,71.4,53.9,30.12,SE,130,0.0,0.0,54,0.00,,---,0.00,VWS V14.01,2013-02-13 02:03:00,
2013-02-12 21:08:00,71.8,53.8,30.12,South,184,0.0,0.0,53,0.00,,---,0.00,VWS V14.01,2013-02-13 02:08:00,
2013-02-12 21:13:00,72.0,53.4,30.12,SSW,195,0.0,0.0,52,0.00,,---,0.00,VWS V14.01,2013-02-13 02:13:00,
2013-02-12 21:18:00,72.1,53.6,30.12,SSW,204,0.0,0.0,52,0.00,,---,0.00,VWS V14.01,2013-02-13 02:18:00,
2013-02-12 21:23:00,72.1,53.6,30.15,South,191,0.0,0.0,52,0.00,,---,0.00,VWS V14.01,2013-02-13 02:23:00,
2013-02-12 21:28:00,72.1,53.6,30.15,South,189,0.0,0.0,52,0.00,,---,0.00,VWS V14.01,2013-02-13 02:28:00,
2013-02-12 21:33:00,72.0,54.4,30.15,South,189,0.0,0.0,54,0.00,,---,0.00,VWS V14.01,2013-02-13 02:33:00,
2013-02-12 21:38:00,72.0,54.9,30.15,South,191,0.0,0.0,55,0.00,,---,0.00,VWS V14.01,2013-02-13 02:38:00,
2013-02-12 21:43:00,71.8,54.8,30.15,South,191,0.0,0.0,55,0.00,,---,0.00,VWS V14.01,2013-02-13 02:43:00,
2013-02-12 21:48:00,71.8,54.8,30.15,SSE,168,0.0,0.0,55,0.00,,---,0.00,VWS V14.01,2013-02-13 02:48:00,
2013-02-12 21:53:00,71.8,55.3,30.15,SSE,168,0.0,0.0,56,0.00,,---,0.00,VWS V14.01,2013-02-13 02:53:00,
2013-02-12 21:58:00,71.4,55.4,30.15,SSE,168,0.0,0.0,57,0.00,,---,0.00,VWS V14.01,2013-02-13 02:58:00,
2013-02-12 22:03:00,71.2,56.2,30.15,SSE,168,0.0,0.0,59,0.00,,---,0.00,VWS V14.01,2013-02-13 03:03:00,
2013-02-12 22:08:00,70.7,56.6,30.15,SSE,168,0.0,0.0,61,0.00,,---,0.00,VWS V14.01,2013-02-13 03:08:00,
2013-02-12 22:13:00,70.7,56.6,30.15,SSE,168,0.0,0.0,61,0.00,,---,0.00,VWS V14.01,2013-02-13 03:13:00,
2013-02-12 22:19:00,69.1,55.1,30.15,SSE,168,0.0,0.0,61,0.00,,---,0.00,VWS V14.01,2013-02-13 03:19:00,
2013-02-12 22:24:00,68.4,55.3,30.15,SSE,168,0.0,0.0,63,0.00,,---,0.00,VWS V14.01,2013-02-13 03:24:00,
2013-02-12 22:29:00,68.2,55.5,30.15,SSE,168,0.0,0.0,64,0.00,,---,0.00,VWS V14.01,2013-02-13 03:29:00,
2013-02-12 22:34:00,67.6,56.7,30.15,SSE,168,0.0,0.0,68,0.00,,---,0.00,VWS V14.01,2013-02-13 03:34:00,
2013-02-12 22:39:00,67.3,56.8,30.15,SSE,168,0.0,0.0,69,0.00,,---,0.00,VWS V14.01,2013-02-13 03:39:00,
2013-02-12 22:44:00,67.1,57.4,30.15,SSE,168,0.0,0.0,71,0.00,,---,0.00,VWS V14.01,2013-02-13 03:44:00,
2013-02-12 22:49:00,66.9,58.4,30.15,SSE,168,0.0,0.0,74,0.00,,---,0.00,VWS V14.01,2013-02-13 03:49:00,
2013-02-12 22:54:00,66.9,59.1,30.15,SSE,168,0.0,0.0,76,0.00,,---,0.00,VWS V14.01,2013-02-13 03:54:00,
2013-02-12 22:59:00,66.7,58.9,30.15,SSE,168,0.0,0.0,76,0.00,,---,0.00,VWS V14.01,2013-02-13 03:59:00,
2013-02-12 23:04:00,66.4,59.3,30.15,SSE,168,0.0,0.0,78,0.00,,---,0.00,VWS V14.01,2013-02-13 04:04:00,
2013-02-12 23:09:00,66.4,59.7,30.15,SSE,168,0.0,0.0,79,0.00,,---,0.00,VWS V14.01,2013-02-13 04:09:00,
2013-02-12 23:14:00,66.2,59.5,30.15,SSE,168,0.0,0.0,79,0.00,,---,0.00,VWS V14.01,2013-02-13 04:14:00,
2013-02-12 23:19:00,66.0,59.7,30.15,SSE,168,0.0,0.0,80,0.00,,---,0.00,VWS V14.01,2013-02-13 04:19:00,
2013-02-12 23:24:00,66.0,59.7,30.15,SSE,168,0.0,0.0,80,0.00,,---,0.00,VWS V14.01,2013-02-13 04:24:00,
2013-02-12 23:29:00,65.8,59.8,30.15,SSE,168,0.0,0.0,81,0.00,,---,0.00,VWS V14.01,2013-02-13 04:29:00,
2013-02-12 23:34:00,65.7,59.7,30.15,SSE,168,0.0,0.0,81,0.00,,---,0.00,VWS V14.01,2013-02-13 04:34:00,
2013-02-12 23:40:00,65.7,59.7,30.15,SSE,168,0.0,0.0,81,0.00,,---,0.00,VWS V14.01,2013-02-13 04:40:00,
2013-02-12 23:45:00,65.7,60.4,30.15,SSE,168,0.0,0.0,83,0.00,,---,0.00,VWS V14.01,2013-02-13 04:45:00,
2013-02-12 23:50:00,65.5,59.8,30.15,SSE,168,0.0,0.0,82,0.00,,---,0.00,VWS V14.01,2013-02-13 04:50:00,
2013-02-12 23:55:00,65.3,59.7,30.15,SSE,168,0.0,0.0,82,0.00,,---,0.00,VWS V14.01,2013-02-13 04:55:00,